Home   Weather   Karratha   Past weeks
Flag for Australia

Past Weather in Karratha, Western Australia, Australia — Yesterday and Last 2 Weeks

Now
65 °F

Mild.


Feels Like: 65 °F
Forecast: 91 / 69 °F
Wind: 7 mph from Southwest

Location: Karratha Aero

Current Time: May 21, 2019 at 7:30:49 am

Latest Report: May 21, 2019 at 6:00 am


Visibility: N/A

Pressure: 30.01 "Hg

Humidity: 52%

Dew Point: 47 °F

Location of KarrathaLocation

Past Weather in Karratha — Graph

°F

Karratha Temperature Yesterday

Maximum temperature yesterday: 90 °F (at 2:00 pm)
Minimum temperature yesterday: 62 °F (at 6:00 am)
Average temperature yesterday: 76 °F

High & Low Weather Summary for the Past Weeks

 TemperatureHumidityPressure
High100 °F (May 6, 3:00 pm)92% (May 18, 2:00 am)30.21 "Hg (May 18, 2:00 am)
Low56 °F (May 13, 6:00 am)8% (May 6, 12:00 pm)29.86 "Hg (May 6, 5:00 pm)
Average75 °F40%30.02 "Hg
* Reported May 6 6:00 am — May 21 6:00 am, Karratha. Weather by CustomWeather, © 2019

Note: Actual official high and low records may vary slightly from our data, if they occured in-between our weather recording intervals... More about our weather records

Advertising

Karratha Weather History for the Previous 24 Hours

Scroll right to see more
 ConditionsComfort  
Time TempWeatherWind HumidityBarometerVisibility
6:00 am
Tue, May 21
65 °FMild.7 mph52%30.01 "HgN/A
5:00 am68 °FMild.5 mph49%30.01 "HgN/A
3:00 am68 °FMild.No wind66%30.01 "HgN/A
2:00 am65 °FMild.3 mph69%30.01 "HgN/A
12:00 am72 °FMild.7 mph80%30.03 "HgN/A
11:00 pm
Mon, May 20
70 °FMild.3 mph66%30.04 "HgN/A
9:00 pm76 °FMild.3 mph58%30.04 "HgN/A
8:00 pm77 °FWarm.3 mph54%30.03 "HgN/A
6:00 pm80 °FWarm.5 mph42%30.01 "HgN/A
5:00 pm83 °FPleasantly warm.7 mph31%30.00 "HgN/A
3:00 pm85 °FPleasantly warm.13 mph30%30.00 "HgN/A
2:00 pm90 °FHot.10 mph16%29.99 "HgN/A
12:00 pm88 °FHot.8 mph23%30.03 "HgN/A
11:00 am86 °FPleasantly warm.8 mph26%30.06 "HgN/A
9:00 am79 °FPleasantly warm.6 mph30%30.07 "HgN/A
8:00 am70 °FMild.3 mph39%30.06 "HgN/A
Weather by CustomWeather, © 2019

See weather overview